Regional Weather Roundup
Issued by NWS Upton, NY

Home | Current Version | Previous Version | Text Only | Print | Product List | Glossary On
Versions: 1 2 3 4 5 6 7 8 9 10 11 12 13 14 15 16 17 18 19 20 21 22 23 24 25 26 27 28 29 30 31 32 33 34 35 36 37 38 39 40 41 42 43 44 45 46 47 48
000
ASUS41 KOKX 020605
RWROKX

REGIONAL WEATHER ROUNDUP
NATIONAL WEATHER SERVICE NEW YORK NY
200 AM EDT SAT AUG 02 2014

NOTE: "FAIR" INDICATES FEW OR NO CLOUDS BELOW 12,000 FEET WITH NO
SIGNIFICANT WEATHER AND/OR OBSTRUCTIONS TO VISIBILITY.

NYZ071-072-176-178-NJZ106-104-020700-
NEW YORK CITY METRO AREA


CITY           SKY/WX    TMP DP  RH WIND       PRES   REMARKS
CENTRAL PARK   CLOUDY    72  63  73 CALM      30.20F
LAGUARDIA APRT CLOUDY    73  63  70 SE6       30.17F
KENNEDY INTL   CLOUDY    72  68  87 E5        30.18F
NEWARK/LIBERTY CLOUDY    73  68  84 VRB3      30.18F
BRNX BOT. GARD   N/A     72  63  73 SE1       30.19R
TETERBORO      CLOUDY    72  67  84 NW3       30.17F
$$

NYZ177-179-078>081-020700-
LONG ISLAND NEW YORK

CITY           SKY/WX    TMP DP  RH WIND       PRES   REMARKS
FARMINGDALE    CLOUDY    70  68  93 E5        30.19F
ISLIP          LGT RAIN  72  68  87 E3        30.18F
SHIRLEY        CLOUDY    70  68  93 CALM      30.20F
WESTHAMPTON    LGT RAIN  70  68  93 E3        30.22S
MONTAUK POINT    N/A     70  67  90 CALM      30.23F
$$

NYZ052-065-067-020700-
HUDSON VALLEY

CITY           SKY/WX    TMP DP  RH WIND       PRES   REMARKS
WHITE PLAINS   CLOUDY    68  65  90 CALM      30.19F
NEWBURGH       MOCLDY    68  66  94 CALM      30.21F
MONTGOMERY     CLOUDY    64  62  93 CALM      30.19F
POUGHKEEPSIE   CLOUDY    69  66  90 CALM      30.18F FOG
ALBANY         CLOUDY    70  64  81 S6        30.18F
$$

NJZ001-105-106-008-010-013-015-019>022-104-020700-
NEW JERSEY

CITY           SKY/WX    TMP DP  RH WIND       PRES   REMARKS
NEWARK/LIBERTY CLOUDY    73  68  84 VRB3      30.18F
TETERBORO      CLOUDY    72  67  84 NW3       30.17F
CALDWELL       CLOUDY    69  66  90 CALM      30.19F FOG
MORRISTOWN     CLOUDY    70  66  88 CALM      30.19S FOG
SOMERVILLE     CLOUDY    69  66  90 CALM      30.17S FOG
LINDEN         MOCLDY    76  71  85 CALM      30.20S
SUSSEX         CLOUDY    67  64  90 CALM      30.20F
ANDOVER          N/A     65  64  97 CALM      30.20F
TRENTON        CLOUDY    69  67  93 N3        30.17F FOG
MILLVILLE      LGT RAIN  69  67  93 NE5       30.15F
ATLANTIC CITY  CLOUDY    69  68  96 CALM      30.14F
WRIGHTSTOWN    LGT RAIN  69  68  99 N3        30.14F
TOMS RIVER     CLOUDY    70  68  94 CALM      30.17S
BELMAR         CLOUDY    70  64  83 CALM      30.17S
$$

PAZ047>061-062-071-020700-
EASTERN PENNSYLVANIA

CITY           SKY/WX    TMP DP  RH WIND       PRES   REMARKS
PHILADELPHIA   LGT RAIN  71  67  87 CALM      30.17F
ALLENTOWN      CLOUDY    68  64  87 CALM      30.19F
SCRANTON       CLOUDY    67  60  78 CALM      30.19F
$$

CTZ002-004>006-009-010-012-RIZ004-006-007-MAZ004-011-015-020700-
SOUTHERN NEW ENGLAND
 IN CT

CITY           SKY/WX    TMP DP  RH WIND       PRES   REMARKS
BRADLEY INTL   CLOUDY    67  64  90 CALM      30.20F
HARTFORD       CLOUDY    70  65  84 SE3       30.20F
DANBURY        CLOUDY    68  63  84 SE5       30.21F
WTRBRY/OXFORD  CLOUDY    66  63  88 CALM      30.24S
BRIDGEPORT     CLOUDY    72  68  87 E5        30.20S
MERIDEN        CLOUDY    68  65  90 CALM      30.21S
NEW HAVEN      CLOUDY    74  68  81 CALM      30.20F
CHESTER        DRIZZLE   68  66  94 CALM      30.22F
GROTON         LGT RAIN  69  68  96 CALM      30.21F
WILLIMANTIC    CLOUDY    68  65  90 CALM      30.22F

 IN RI

CITY           SKY/WX    TMP DP  RH WIND       PRES   REMARKS
PROVIDENCE     CLOUDY    70  67  90 S5        30.23F
BLOCK ISLAND   CLOUDY    70  66  88 CALM      30.22F
WESTERLY       CLOUDY    70  67  90 N3        30.22F

 IN MA

CITY           SKY/WX    TMP DP  RH WIND       PRES   REMARKS
BOSTON         CLOUDY    70  65  84 S6        30.22S
WORCESTER      CLOUDY    66  64  93 W6        30.23F
WESTFIELD      FOG       66  64  93 CALM      30.21S VSB 1/2
PROVINCETOWN   CLOUDY    68  63  83 CALM      30.24S
NANTUCKET      CLOUDY    64  60  87 E6        30.23F
$$

ANZ330-335-338-340-345-350-353-355-020700-
COASTAL MARINE OBSERVATIONS


STATION/POSITION TIME  SKY/WX   TEMP    WIND        PRES    VSBY  WAVE
                                AIR SEA DIR/SP/G                  HT/PER
                 (UTC)          (F)     (DEG/KT/KT) (MB)    (MI)  (FT/S)
NY HARB ENTRANCE NOT AVBL
4S FIRE IS       NOT AVBL
23SW MTP         0600            71 71              1022.4          2/ 7
HUDSON CANYON    0600            75 74  100/ 12/ 14 1020.6          3/ 7
EXECUTION ROCKS  0600            71 70   90/  6/  6   N/A
WESTERN LI SOUND 0600            72      80/  6/  6   N/A           0
CENTRAL LI SOUND 0500            72 72  130/  4/  6   N/A           0
EASTERN LI SOUND 0500            69 68  120/  6/  8   N/A
ROBBINS REEF     0600            73     130/  4/  5   N/A
$$


>>>>>>>>>>>>>>>>>>>>>>>>>>>> KEY <<<<<<<<<<<<<<<<<<<<<<<<<<<
>                                                          <
>     SKY/WX - SKY CONDITION/PRESENT WEATHER               <
>     TMP    - TEMPERATURE IN FAHRENHEIT                   <
>     DP     - DEWPOINT IN FAHRENHEIT                      <
>     RH     - RELATIVE HUMIDITY IN PERCENT                <
>     WIND   - DIRECTION AND SPEED IN MPH                  <
>     PRES   - MEAN SEA LEVEL PRESSURE IN INCHES OF HG     <
>     WCI    - WIND CHILL INDEX                            <
>     VSB    - VISIBILITY IN MILES                         <
>     HX     - HEAT INDEX                                  <
>     TC     - TEMPERATURE IN CELSIUS                      <
>     VRB    - VARIABLE WIND DIRECTION                     <
>                                                          <
>>>>>>>>>>>>>>>>>>>>>>>>>>>> KEY <<<<<<<<<<<<<<<<<<<<<<<<<<<




USA.gov is the U.S. government's official web portal to all federal, state and local government web resources and services.